Voltar ao catálogo

STARLINK-31098

AtivoComunicaçõesVLEO
NORAD 58716·PAYLOAD·🇺🇸 United States

Lançado Jan 3, 2024 de Vandenberg Space Force Base

Loading…

Próximas Passagens (próximas 24 horas)

TLE

AtualizadoSource: CelesTrak SupGP

Época: Sep 15, 2026, 02:51 UTC

1 58716C 24002M   26258.11923611 -.00026495  00000+0 -78287-3 0  2582
2 58716  53.1587  68.8449 0001204  89.2862 318.0670 15.34401316    13

Acompanhe STARLINK-31098 em tempo real com AllMySat

Download on the App Store